Weather History for CYVR - May, 2014

Change the Weather History Date:

Saturday, May 17, 2014

  Actual Average Record
Temperature  
Mean Temperature 60 °F -  
Max Temperature 66 °F 59 °F 84 °F (2008)
Min Temperature 53 °F 46 °F 41 °F (2003)
Degree Days  
Heating Degree Days 6    
Growing Degree Days 10 (Base 50)    
Moisture  
Dew Point 49 °F    
Average Humidity 68    
Maximum Humidity 82    
Minimum Humidity 47    
Precipitation  
Precipitation 0.00 in - - ()
Sea Level Pressure  
Sea Level Pressure 29.96 in    
Wind  
Wind Speed 6 mph ()    
Max Wind Speed 13 mph    
Max Gust Speed 25 mph    
Visibility 17.1 miles    
Events      
Averages and records for this station are not official NWS values.
T = Trace of Precipitation, MM = Missing Value Source: Averaged Metar Reports

Daily Weather History Graph

Daily Weather History Graph

Search for Another Location

Airport or City:

Trip Planner

Search our weather history database for the weather conditions in past years. The results will help you decide how hot, cold, wet, or windy it might be!

Date:

Astronomy

May. 17, 2014 Rise Set
Actual Time 5:27 AM PDT 8:51 PM PDT
Civil Twilight 4:48 AM PDT 9:30 PM PDT
Nautical Twilight 3:56 AM PDT 10:22 PM PDT
Astronomical Twilight 2:48 AM PDT 11:32 PM PDT
Moon 11:54 PM PDT (5/17) 8:16 AM PDT (5/17)
Length of Visible Light 16h 42m
Length of Day
15h 24m
Waning Gibbous, 88% of the Moon is Illuminated
May 17
Waning Gibbous
May 21
Last Quarter
May 28
New
Jun 5
First Quarter
Jun 12
Full

Hourly Weather History & Observations

Time (PDT) Temp. Dew Point Humidity Pressure Visibility Wind Dir Wind Speed Gust Speed Precip Events Conditions
12:00 AM 57.2 °F 48.2 °F 72% 30.06 in 15.0 mi SE 4.6 mph - N/A   Overcast
1:00 AM 57.2 °F 48.2 °F 72% 30.04 in 15.0 mi SSE 3.5 mph - N/A   Overcast
2:00 AM 55.4 °F 50.0 °F 82% 30.04 in 15.0 mi SSE 4.6 mph - N/A   Overcast
3:00 AM 55.4 °F 48.2 °F 77% 30.04 in 15.0 mi SE 6.9 mph - N/A   Overcast
4:00 AM 55.4 °F 48.2 °F 77% 30.02 in 30.0 mi SE 6.9 mph - N/A   Overcast
5:00 AM 56 °F 49 °F 69% 30.01 in 15 mi ESE 5.8 mph - -   Mostly Cloudy
5:00 AM 55.4 °F 48.2 °F 77% 30.01 in 15.0 mi ESE 5.8 mph - N/A   Mostly Cloudy
6:00 AM 53.6 °F 48.2 °F 82% 30.02 in 15.0 mi SE 5.8 mph - N/A   Overcast
7:00 AM 55.4 °F 50.0 °F 82% 30.01 in 15.0 mi SE 5.8 mph - N/A   Overcast
8:00 AM 57.2 °F 50.0 °F 77% 30.01 in 15.0 mi SE 4.6 mph - N/A   Overcast
9:00 AM 59.0 °F 50.0 °F 72% 30.01 in 20.0 mi SE 5.8 mph - N/A   Mostly Cloudy
10:00 AM 59.0 °F 51.8 °F 77% 29.99 in 20.0 mi SSW 4.6 mph - N/A   Overcast
11:00 AM 61 °F 50 °F 58% 29.99 in 19 mi SE 6.9 mph - -   Overcast
11:00 AM 60.8 °F 50.0 °F 68% 29.98 in 20.0 mi SSE 6.9 mph - N/A   Overcast
12:00 PM 62.6 °F 51.8 °F 68% 29.97 in 30.0 mi SE 5.8 mph - N/A   Mostly Cloudy
1:00 PM 62.6 °F 51.8 °F 68% 29.96 in 30.0 mi SSE 8.1 mph - N/A   Mostly Cloudy
2:00 PM 66.2 °F 50.0 °F 56% 29.95 in 30.0 mi South 11.5 mph - N/A   Mostly Cloudy
3:00 PM 66.2 °F 50.0 °F 56% 29.93 in 30.0 mi South 10.4 mph 19.6 mph N/A   Scattered Clouds
4:00 PM 66.2 °F 50.0 °F 56% 29.92 in 30.0 mi SSE 9.2 mph - N/A   Scattered Clouds
4:26 PM 64.4 °F 50.0 °F 59% 29.91 in 30.0 mi South 11.5 mph 25.3 mph N/A   Scattered Clouds
5:00 PM 64 °F 49 °F 47% 29.91 in 28 mi South 12.7 mph - -   Scattered Clouds
5:00 PM 64.4 °F 48.2 °F 56% 29.91 in 30.0 mi South 12.7 mph - N/A   Scattered Clouds
6:00 PM 62.6 °F 48.2 °F 59% 29.90 in 30.0 mi SSE 11.5 mph 20.7 mph N/A   Mostly Cloudy
7:00 PM 60.8 °F 48.2 °F 63% 29.89 in 30.0 mi SE 10.4 mph - N/A   Mostly Cloudy
8:00 PM 59.0 °F 48.2 °F 67% 29.88 in 30.0 mi SE 8.1 mph - N/A   Mostly Cloudy
9:00 PM 57.2 °F 48.2 °F 72% 29.88 in 30.0 mi ENE 8.1 mph - N/A   Scattered Clouds
10:00 PM 57.2 °F 48.2 °F 72% 29.87 in 20.0 mi ENE 8.1 mph - N/A   Scattered Clouds
11:00 PM 56 °F 48 °F 66% 29.87 in 19 mi East 8.1 mph - -   Scattered Clouds
11:00 PM 55.4 °F 48.2 °F 77% 29.86 in 20.0 mi East 9.2 mph - N/A   Scattered Clouds